[[{"header":{"parameterUnit":"m.s-1","parameterCategory":1,"la1":30.2992,"la2":30.254,"lo1":-89.0895,"lo2":-89.0443,"dy":0.0025,"dx":0.0025,"nx":19,"ny":19,"refTime":"2026-04-28T09:00:00:Z","depth":0,"parameterNumber":2,"parameterNumberName":"U-component_of_WINDS"},"data":[0,0,0,-1.4477,-1.4478,-1.4528,-1.4528,-1.4591,-1.4592,0,0,0,0,0,0,0,0,0,0,0,-1.4461,-1.4462,-1.4477,-1.4478,-1.4527,-1.4528,-1.4591,-1.4592,0,0,0,0,0,0,0,0,0,0,0,-1.4461,-1.4462,-1.4462,-1.4478,-1.4527,-1.4528,-1.4591,-1.4554,0,0,0,0,0,0,0,0,0,0,-1.4506,-1.449,-1.4461,-1.4462,-1.4479,-1.4527,-1.4528,-1.4552,-1.4556,-1.4569,0,-1.4578,0,-1.4586,-1.4596,-1.4596,0,0,0,-1.4479,-1.4486,-1.4501,-1.4462,-1.4479,-1.4527,-1.4506,-1.4554,-1.4559,-1.4574,-1.4579,-1.4581,-1.4587,-1.4596,-1.4597,-1.4661,-1.4661,0,0,-1.4477,-1.447,-1.4498,-1.4504,-1.4495,-1.4504,-1.4507,-1.4557,-1.4563,-1.4579,-1.4583,-1.4588,-1.4597,-1.4597,-1.4661,-1.4661,0,0,0,-1.4468,-1.4468,-1.4481,-1.4501,-1.451,-1.4505,-1.4509,-1.456,-1.4565,-1.4584,-1.4589,-1.4597,-1.4598,-1.4661,-1.4661,-1.4666,0,0,0,-1.4466,-1.4463,-1.448,-1.4476,-1.4509,-1.4535,-1.4511,-1.4562,-1.4568,-1.4588,-1.4597,-1.4598,-1.466,-1.4661,-1.4665,-1.4669,0,0,0,-1.4459,-1.4462,-1.4468,-1.4475,-1.4496,-1.4535,-1.4543,-1.4563,-1.4571,-1.4596,-1.4599,-1.466,-1.4661,-1.4664,-1.4668,-1.4684,0,0,0,-1.4448,-1.4472,-1.4468,-1.4498,-1.4496,-1.4537,-1.4542,-1.4574,-1.4596,-1.4597,-1.466,-1.4661,-1.4664,-1.4667,-1.4683,-1.4696,-1.47,0,0,-1.4475,-1.4475,-1.4493,-1.4491,-1.4531,-1.453,-1.4572,-1.4599,-1.4609,-1.4643,-1.4645,-1.4665,-1.4668,-1.4684,-1.4729,-1.4733,0,0,0,-1.4499,-1.4512,-1.4524,-1.4544,-1.4565,-1.4584,-1.4606,-1.4617,-1.4647,-1.4625,-1.4676,-1.4678,-1.4687,-1.4694,-1.4697,-1.4706,-1.4664,-1.4664,-1.4663,-1.4526,-1.4536,-1.4567,-1.4583,-1.4603,-1.4626,-1.4644,-1.4662,-1.4667,-1.4679,-1.4689,-1.4715,-1.4722,-1.4724,-1.4734,-1.4697,-1.4697,-1.4697,-1.4697,-1.4566,-1.4585,-1.4591,-1.4623,-1.4634,-1.4661,-1.4685,-1.4688,-1.4715,-1.4708,-1.4717,-1.4708,-1.4728,-1.4737,-1.4697,-1.4697,-1.4697,-1.4697,-1.4697,-1.4585,-1.4596,-1.4608,-1.4639,-1.4662,-1.4679,-1.4705,-1.4715,-1.4725,-1.4733,-1.4746,-1.4746,-1.4747,-1.4739,-1.4739,-1.4739,-1.4739,-1.4739,-1.4739,-1.4599,-1.4612,-1.4633,-1.4658,-1.4673,-1.4694,-1.4718,-1.4733,-1.4753,-1.4758,-1.4758,-1.4762,-1.4728,-1.4719,-1.4741,-1.474,-1.474,-1.474,-1.474,-1.4635,-1.4629,-1.466,-1.4674,-1.4705,-1.4728,-1.4741,-1.4772,-1.4786,-1.4799,-1.4802,-1.4774,-1.4776,-1.4774,-1.4766,-1.4799,-1.4799,-1.4799,-1.4799,-1.4651,-1.4652,-1.4687,-1.471,-1.4734,-1.4748,-1.4785,-1.4805,-1.4824,-1.4834,-1.4831,-1.4822,-1.4819,-1.4823,-1.4819,-1.4812,-1.4856,-1.4856,-1.4856,-1.4674,-1.4678,-1.4706,-1.4724,-1.4749,-1.4771,-1.4806,-1.4834,-1.4855,-1.4859,-1.4842,-1.484,-1.4826,-1.4821,-1.4823,-1.4818,-1.4806,0,0]},{"header":{"parameterUnit":"m.s-1","parameterCategory":1,"la1":30.2992,"la2":30.254,"lo1":-89.0895,"lo2":-89.0443,"dy":0.0025,"dx":0.0025,"nx":19,"ny":19,"refTime":"2026-04-28T09:00:00:Z","depth":0,"parameterNumber":3,"parameterNumberName":"V-component_of_WINDS"},"data":[0,0,0,3.8291,3.8291,3.8265,3.8264,3.8252,3.8252,0,0,0,0,0,0,0,0,0,0,0,3.8312,3.8313,3.8291,3.8291,3.8265,3.8264,3.8252,3.8252,0,0,0,0,0,0,0,0,0,0,0,3.8312,3.8313,3.8313,3.8291,3.8265,3.8264,3.8252,3.8264,0,0,0,0,0,0,0,0,0,0,3.8286,3.8319,3.8313,3.8313,3.8291,3.8265,3.8264,3.8264,3.8263,3.8273,0,3.8286,0,3.8269,3.8253,3.8253,0,0,0,3.8281,3.832,3.8301,3.8313,3.8291,3.8265,3.8274,3.8264,3.8262,3.8272,3.8285,3.8284,3.8269,3.8253,3.8253,3.8344,3.8344,0,0,3.8282,3.8315,3.8302,3.8301,3.8306,3.8275,3.8273,3.8263,3.8279,3.8285,3.8284,3.8269,3.8253,3.8253,3.8343,3.8344,0,0,0,3.8293,3.8316,3.8297,3.8302,3.8295,3.8274,3.8272,3.828,3.8271,3.8283,3.8268,3.8253,3.8253,3.8342,3.8343,3.8419,0,0,0,3.8294,3.8323,3.8298,3.8318,3.8296,3.8287,3.829,3.8271,3.8269,3.8268,3.8253,3.8253,3.8341,3.8342,3.8415,3.8449,0,0,0,3.831,3.8324,3.8325,3.832,3.8309,3.8287,3.8277,3.827,3.826,3.8253,3.8253,3.834,3.8342,3.8411,3.8443,3.8482,0,0,0,3.8336,3.8393,3.8327,3.8385,3.831,3.8334,3.8276,3.8293,3.8295,3.8253,3.8341,3.8343,3.841,3.8439,3.8479,3.8521,3.8542,0,0,3.8426,3.8405,3.8437,3.8377,3.8421,3.8335,3.839,3.8362,3.8331,3.8341,3.8343,3.8416,3.8442,3.8481,3.8649,3.8666,0,0,0,3.8476,3.8499,3.8504,3.8508,3.8487,3.8472,3.8432,3.8421,3.8428,3.8343,3.844,3.8455,3.8476,3.8495,3.851,3.8526,3.8353,3.8353,3.8353,3.8651,3.8608,3.8658,3.8612,3.8617,3.8574,3.8574,3.8552,3.8508,3.8532,3.8534,3.8641,3.8664,3.8675,3.8692,3.8554,3.8554,3.8554,3.8554,3.8779,3.8805,3.8745,3.8771,3.8726,3.8747,3.8708,3.8677,3.869,3.8636,3.8652,3.8597,3.8695,3.8708,3.856,3.8559,3.8558,3.8557,3.8557,3.8888,3.8893,3.8879,3.888,3.8885,3.8837,3.8852,3.8811,3.8771,3.8788,3.8786,3.8785,3.8778,3.879,3.8791,3.8791,3.8791,3.8792,3.8792,3.9007,3.8989,3.9007,3.899,3.8987,3.8977,3.8935,3.893,3.8914,3.8882,3.8882,3.8836,3.8712,3.8682,3.8797,3.8796,3.8796,3.8795,3.8795,3.9152,3.9112,3.9141,3.9138,3.9114,3.9122,3.9068,3.9062,3.9052,3.9061,3.9011,3.8927,3.8902,3.889,3.8865,3.902,3.902,3.902,3.902,3.9244,3.9228,3.9247,3.9244,3.9237,3.9192,3.9224,3.9192,3.9151,3.9142,3.9114,3.9077,3.9067,3.9048,3.9033,3.9008,3.9197,3.9197,3.9197,3.9331,3.9312,3.9348,3.9308,3.9287,3.9269,3.9298,3.9297,3.9243,3.9203,3.9134,3.9127,3.9066,3.9049,3.9008,3.8985,3.894,0,0]}]]